| time (UTC) | temp F | wind direction | speed knots | gust knots | rain 1hr in | rain 24hr in | rain mn in | humidity % | barometer mb |
| 20260504215026 | 72 | 180 | 3.5 | 14.8 | 0.00 | 0.00 | 0.00 | 42 | 1006.7 |
| 20260504214522 | 71 | 256 | 6.1 | 15.6 | 0.00 | 0.00 | 0.00 | 41 | 1006.8 |
| 20260504214022 | 72 | 175 | 7.0 | 15.6 | 0.00 | 0.00 | 0.00 | 41 | 1006.8 |
| 20260504213747 | 72 | 189 | 2.6 | 9.6 | 0.00 | 0.00 | 0.00 | 40 | 1006.7 |
| 20260504213020 | 72 | 249 | 6.1 | 9.6 | 0.00 | 0.00 | 0.00 | 40 | 1006.7 |
| 20260504212741 | 72 | 219 | 3.5 | 9.6 | 0.00 | 0.00 | 0.00 | 42 | 1006.8 |
| 20260504212021 | 72 | 203 | 6.1 | 10.4 | 0.00 | 0.00 | 0.00 | 40 | 1006.7 |
| 20260504211519 | 72 | 161 | 6.1 | 10.4 | 0.00 | 0.00 | 0.00 | 41 | 1006.6 |
| 20260504211015 | 72 | 307 | 5.2 | 13.0 | 0.00 | 0.00 | 0.00 | 40 | 1006.7 |
| 20260504210512 | 72 | 178 | 7.8 | 13.0 | 0.00 | 0.00 | 0.00 | 40 | 1006.7 |
| 20260504210007 | 72 | 260 | 7.0 | 12.2 | 0.00 | 0.00 | 0.00 | 41 | 1006.5 |
| 20260504205507 | 71 | 143 | 6.1 | 11.3 | 0.00 | 0.00 | 0.00 | 43 | 1006.7 |
| 20260504205010 | 71 | 121 | 3.5 | 10.4 | 0.00 | 0.00 | 0.00 | 42 | 1006.8 |
| 20260504204503 | 71 | 213 | 5.2 | 11.3 | 0.00 | 0.00 | 0.00 | 41 | 1006.8 |
| 20260504204000 | 71 | 208 | 5.2 | 11.3 | 0.00 | 0.00 | 0.00 | 41 | 1007.0 |
| 20260504203457 | 71 | 126 | 4.3 | 10.4 | 0.00 | 0.00 | 0.00 | 42 | 1007.1 |
| 20260504203222 | 72 | 213 | 5.2 | 10.4 | 0.00 | 0.00 | 0.00 | 41 | 1007.1 |
| 20260504202450 | 71 | 241 | 4.3 | 12.2 | 0.00 | 0.00 | 0.00 | 42 | 1007.1 |
| 20260504201952 | 72 | 209 | 5.2 | 12.2 | 0.00 | 0.00 | 0.00 | 40 | 1007.2 |
| 20260504201450 | 71 | 201 | 5.2 | 9.6 | 0.00 | 0.00 | 0.00 | 42 | 1007.1 |
| 20260504201211 | 71 | 205 | 3.5 | 9.6 | 0.00 | 0.00 | 0.00 | 43 | 1007.2 |
| 20260504200714 | 71 | 176 | 4.3 | 9.6 | 0.00 | 0.00 | 0.00 | 42 | 1007.3 |
| 20260504200210 | 72 | 285 | 4.3 | 8.7 | 0.00 | 0.00 | 0.00 | 41 | 1007.3 |
| 20260504195440 | 71 | 235 | 2.6 | 8.7 | 0.00 | 0.00 | 0.00 | 42 | 1007.3 |
| 20260504194938 | 70 | 207 | 3.5 | 10.4 | 0.00 | 0.00 | 0.00 | 42 | 1007.4 |
| 20260504194439 | 71 | 221 | 4.3 | 11.3 | 0.00 | 0.00 | 0.00 | 40 | 1007.6 |
| 20260504193935 | 70 | 213 | 6.1 | 14.8 | 0.00 | 0.00 | 0.00 | 41 | 1007.8 |
| 20260504193658 | 70 | 201 | 3.5 | 14.8 | 0.00 | 0.00 | 0.00 | 41 | 1007.9 |
| 20260504192933 | 70 | 173 | 5.2 | 12.2 | 0.00 | 0.00 | 0.00 | 41 | 1008.0 |
| 20260504192430 | 71 | 202 | 5.2 | 12.2 | 0.00 | 0.00 | 0.00 | 40 | 1008.1 |
| 20260504191932 | 70 | 302 | 3.5 | 14.8 | 0.00 | 0.00 | 0.00 | 41 | 1008.1 |
| 20260504191430 | 71 | 333 | 10.4 | 14.8 | 0.00 | 0.00 | 0.00 | 39 | 1008.1 |
| 20260504190930 | 71 | 234 | 7.0 | 14.8 | 0.00 | 0.00 | 0.00 | 40 | 1008.1 |
| 20260504190427 | 71 | 248 | 8.7 | 12.2 | 0.00 | 0.00 | 0.00 | 40 | 1008.2 |
| 20260504185926 | 71 | 252 | 6.1 | 12.2 | 0.00 | 0.00 | 0.00 | 40 | 1008.2 |
| 20260504185426 | 70 | 252 | 6.1 | 12.2 | 0.00 | 0.00 | 0.00 | 42 | 1008.4 |
| 20260504184922 | 70 | 240 | 3.5 | 13.0 | 0.00 | 0.00 | 0.00 | 42 | 1008.4 |
| 20260504184421 | 71 | 232 | 6.1 | 13.9 | 0.00 | 0.00 | 0.00 | 40 | 1008.5 |
| 20260504183920 | 71 | 238 | 7.0 | 13.9 | 0.00 | 0.00 | 0.00 | 41 | 1008.5 |
| 20260504183425 | 71 | 188 | 4.3 | 13.0 | 0.00 | 0.00 | 0.00 | 40 | 1008.5 |
| 20260504182919 | 71 | 208 | 7.0 | 13.0 | 0.00 | 0.00 | 0.00 | 41 | 1008.6 |
| 20260504182421 | 70 | 227 | 5.2 | 11.3 | 0.00 | 0.00 | 0.00 | 41 | 1008.7 |
| 20260504181923 | 70 | 257 | 5.2 | 11.3 | 0.00 | 0.00 | 0.00 | 39 | 1008.6 |
| 20260504181421 | 69 | 234 | 7.0 | 10.4 | 0.00 | 0.00 | 0.00 | 43 | 1008.8 |
| 20260504180919 | 69 | 175 | 6.1 | 12.2 | 0.00 | 0.00 | 0.00 | 42 | 1008.8 |
| 20260504180639 | 70 | 238 | 5.2 | 13.0 | 0.00 | 0.00 | 0.00 | 40 | 1008.8 |
| 20260504175920 | 69 | 263 | 7.8 | 13.0 | 0.00 | 0.00 | 0.00 | 41 | 1008.9 |
| 20260504175419 | 69 | 192 | 7.0 | 15.6 | 0.00 | 0.00 | 0.00 | 41 | 1009.1 |
| 20260504175205 | 70 | 194 | 7.8 | 15.6 | 0.00 | 0.00 | 0.00 | 41 | 1009.1 |
| 20260504174418 | 69 | 153 | 5.2 | 13.0 | 0.00 | 0.00 | 0.00 | 42 | 1009.1 |
| 20260504173920 | 69 | 236 | 9.6 | 13.0 | 0.00 | 0.00 | 0.00 | 42 | 1009.1 |
| 20260504173645 | 68 | 198 | 5.2 | 14.8 | 0.00 | 0.00 | 0.00 | 40 | 1009.1 |
| 20260504172915 | 68 | 188 | 9.6 | 14.8 | 0.00 | 0.00 | 0.00 | 40 | 1009.2 |
| 20260504172415 | 69 | 174 | 5.2 | 12.2 | 0.00 | 0.00 | 0.00 | 40 | 1009.3 |
| 20260504171917 | 68 | 237 | 6.1 | 12.2 | 0.00 | 0.00 | 0.00 | 40 | 1009.3 |
| 20260504171641 | 68 | 212 | 3.5 | 11.3 | 0.00 | 0.00 | 0.00 | 42 | 1009.2 |
| 20260504170915 | 68 | 216 | 7.0 | 11.3 | 0.00 | 0.00 | 0.00 | 40 | 1009.6 |
| 20260504170429 | 68 | 174 | 5.2 | 12.2 | 0.00 | 0.00 | 0.00 | 41 | 1009.7 |
| 20260504170417 | 68 | 257 | 4.3 | 12.2 | 0.00 | 0.00 | 0.00 | 41 | 1009.5 |
| 20260504160415 | 65 | 277 | 7.0 | 10.4 | 0.00 | 0.00 | 0.00 | 43 | 1010.5 |
| 20260504150916 | 63 | 187 | 7.8 | 13.9 | 0.00 | 0.00 | 0.00 | 42 | 1010.9 |
| 20260504150416 | 63 | 238 | 6.1 | 14.8 | 0.00 | 0.00 | 0.00 | 43 | 1011.0 |
| 20260504140915 | 60 | 260 | 7.8 | 13.0 | 0.00 | 0.00 | 0.00 | 42 | 1011.1 |
| 20260504140416 | 60 | 258 | 5.2 | 14.8 | 0.00 | 0.00 | 0.00 | 42 | 1011.1 |
| 20260504130417 | 53 | 223 | 0.9 | 2.6 | 0.00 | 0.00 | 0.00 | 57 | 1011.5 |
| 20260504110603 | 35 | 220 | 0.0 | 0.0 | 0.00 | 0.00 | 0.00 | 92 | 1011.9 |
| 20260504100252 | 32 | 221 | 0.0 | 1.7 | 0.00 | 0.00 | 0.00 | 92 | 1012.1 |
| 20260504081639 | 35 | 239 | 0.0 | 3.5 | 0.00 | 0.00 | 0.00 | 90 | 1012.3 |
| 20260504081139 | 34 | 30 | 1.7 | 3.5 | 0.00 | 0.00 | 0.00 | 90 | 1012.3 |
| 20260504080638 | 34 | 156 | 0.0 | 1.7 | 0.00 | 0.00 | 0.00 | 90 | 1012.4 |
| 20260504080137 | 34 | 155 | 0.0 | 2.6 | 0.00 | 0.00 | 0.00 | 90 | 1012.4 |
| 20260504070344 | 36 | 0 | 0.9 | 0.9 | 0.00 | 0.00 | 0.00 | 89 | 1012.4 |
| 20260504060128 | 36 | 0 | 0.0 | 0.0 | 0.00 | 0.00 | 0.00 | 86 | 1012.3 |
| 20260504050613 | 38 | 0 | 0.0 | 0.9 | 0.00 | 0.00 | 0.00 | 84 | 1012.4 |
| 20260504050116 | 38 | 0 | 0.0 | 0.0 | 0.00 | 0.00 | 0.00 | 83 | 1012.6 |
| 20260504045613 | 38 | 0 | 0.0 | 0.0 | 0.00 | 0.00 | 0.00 | 82 | 1012.5 |
| 20260504045117 | 38 | 0 | 0.0 | 0.0 | 0.00 | 0.00 | 0.00 | 82 | 1012.5 |
| 20260504044610 | 38 | 0 | 0.0 | 0.0 | 0.00 | 0.00 | 0.00 | 82 | 1012.5 |
| 20260504044110 | 38 | 0 | 0.0 | 0.0 | 0.00 | 0.00 | 0.00 | 82 | 1012.5 |
| 20260504043608 | 39 | 0 | 0.0 | 0.0 | 0.00 | 0.00 | 0.00 | 81 | 1012.4 |
| 20260504043112 | 39 | 0 | 0.0 | 0.0 | 0.00 | 0.00 | 0.00 | 81 | 1012.5 |
| 20260504042831 | 39 | 0 | 0.0 | 1.7 | 0.00 | 0.00 | 0.00 | 81 | 1012.4 |
| 20260504042340 | 39 | 0 | 0.0 | 1.7 | 0.00 | 0.00 | 0.00 | 82 | 1012.4 |
| 20260504041602 | 38 | 0 | 0.0 | 1.7 | 0.00 | 0.00 | 0.00 | 82 | 1012.4 |
| 20260504041101 | 39 | 0 | 0.0 | 0.0 | 0.00 | 0.00 | 0.00 | 81 | 1012.5 |
| 20260504040819 | 39 | 0 | 0.0 | 0.0 | 0.00 | 0.00 | 0.00 | 80 | 1012.5 |
| 20260504040057 | 40 | 0 | 0.0 | 0.0 | 0.00 | 0.00 | 0.00 | 79 | 1012.4 |
| 20260504035558 | 40 | 0 | 0.0 | 0.0 | 0.00 | 0.00 | 0.00 | 78 | 1012.4 |
| 20260504035054 | 41 | 0 | 0.0 | 0.0 | 0.00 | 0.00 | 0.00 | 75 | 1012.3 |
| 20260504034554 | 41 | 0 | 0.0 | 0.0 | 0.00 | 0.00 | 0.00 | 76 | 1012.2 |
| 20260504034051 | 41 | 0 | 0.0 | 0.9 | 0.00 | 0.00 | 0.00 | 75 | 1012.2 |
| 20260504033552 | 42 | 0 | 0.0 | 0.9 | 0.00 | 0.00 | 0.00 | 72 | 1012.0 |
| 20260504033320 | 42 | 0 | 0.0 | 0.0 | 0.00 | 0.00 | 0.00 | 73 | 1012.1 |
| 20260504032552 | 41 | 0 | 0.0 | 0.0 | 0.00 | 0.00 | 0.00 | 75 | 1012.0 |
| 20260504032315 | 41 | 0 | 0.0 | 0.0 | 0.00 | 0.00 | 0.00 | 75 | 1011.9 |
| 20260504031812 | 42 | 0 | 0.0 | 0.0 | 0.00 | 0.00 | 0.00 | 72 | 1011.9 |
| 20260504031053 | 42 | 0 | 0.0 | 0.0 | 0.00 | 0.00 | 0.00 | 72 | 1011.8 |
| 20260504030552 | 42 | 0 | 0.0 | 0.0 | 0.00 | 0.00 | 0.00 | 74 | 1011.9 |
| 20260504030052 | 43 | 0 | 0.0 | 0.0 | 0.00 | 0.00 | 0.00 | 73 | 1011.9 |
| 20260504025822 | 42 | 0 | 0.0 | 0.0 | 0.00 | 0.00 | 0.00 | 71 | 1011.9 |
| 20260504025322 | 42 | 0 | 0.0 | 0.0 | 0.00 | 0.00 | 0.00 | 73 | 1011.9 |
| 20260504024818 | 42 | 0 | 0.0 | 0.0 | 0.00 | 0.00 | 0.00 | 74 | 1011.8 |
| 20260504024049 | 43 | 0 | 0.0 | 0.0 | 0.00 | 0.00 | 0.00 | 71 | 1011.9 |
| 20260504023547 | 44 | 0 | 0.0 | 0.0 | 0.00 | 0.00 | 0.00 | 68 | 1011.8 |
| 20260504023046 | 45 | 0 | 0.0 | 0.9 | 0.00 | 0.00 | 0.00 | 64 | 1011.9 |
| 20260504022548 | 44 | 0 | 0.0 | 0.9 | 0.00 | 0.00 | 0.00 | 65 | 1012.0 |
| 20260504022046 | 44 | 0 | 0.0 | 0.0 | 0.00 | 0.00 | 0.00 | 69 | 1011.9 |
| 20260504021549 | 44 | 0 | 0.0 | 0.0 | 0.00 | 0.00 | 0.00 | 69 | 1012.1 |
| 20260504021042 | 45 | 0 | 0.0 | 0.0 | 0.00 | 0.00 | 0.00 | 66 | 1012.0 |
| 20260504020538 | 45 | 0 | 0.0 | 0.0 | 0.00 | 0.00 | 0.00 | 66 | 1011.9 |
| 20260504020037 | 45 | 0 | 0.0 | 0.0 | 0.00 | 0.00 | 0.00 | 68 | 1011.9 |
| 20260504015531 | 45 | 0 | 0.0 | 0.0 | 0.00 | 0.00 | 0.00 | 66 | 1011.9 |
| 20260504015033 | 46 | 0 | 0.0 | 0.0 | 0.00 | 0.00 | 0.00 | 65 | 1011.9 |
| 20260504014528 | 47 | 0 | 0.0 | 0.0 | 0.00 | 0.00 | 0.00 | 62 | 1011.9 |
| 20260504014519 | 47 | 0 | 0.0 | 0.9 | 0.00 | 0.00 | 0.00 | 60 | 1011.9 |
| 20260504013524 | 47 | 0 | 0.0 | 0.9 | 0.00 | 0.00 | 0.00 | 59 | 1011.8 |
| 20260504013016 | 47 | 0 | 0.0 | 0.0 | 0.00 | 0.00 | 0.00 | 60 | 1011.8 |
| 20260504012741 | 47 | 0 | 0.0 | 0.0 | 0.00 | 0.00 | 0.00 | 60 | 1011.8 |
| 20260504012242 | 48 | 0 | 0.0 | 0.0 | 0.00 | 0.00 | 0.00 | 60 | 1011.5 |
| 20260504011521 | 48 | 0 | 0.0 | 0.0 | 0.00 | 0.00 | 0.00 | 59 | 1011.5 |
| 20260504011252 | 48 | 0 | 0.0 | 0.0 | 0.00 | 0.00 | 0.00 | 58 | 1011.7 |
| 20260504010517 | 49 | 0 | 0.0 | 0.0 | 0.00 | 0.00 | 0.00 | 57 | 1011.5 |
| 20260504010012 | 49 | 0 | 0.0 | 0.0 | 0.00 | 0.00 | 0.00 | 57 | 1011.5 |
| 20260504005512 | 49 | 0 | 0.0 | 0.0 | 0.00 | 0.00 | 0.00 | 56 | 1011.5 |
| 20260504005013 | 50 | 0 | 0.0 | 2.6 | 0.00 | 0.00 | 0.00 | 56 | 1011.3 |
| 20260504004511 | 50 | 0 | 0.0 | 2.6 | 0.00 | 0.00 | 0.00 | 54 | 1011.4 |
| 20260504004012 | 51 | 335 | 0.9 | 1.7 | 0.00 | 0.00 | 0.00 | 52 | 1011.3 |
| 20260504003512 | 51 | 289 | 0.0 | 0.0 | 0.00 | 0.00 | 0.00 | 52 | 1011.3 |
| 20260504003012 | 52 | 289 | 0.0 | 0.9 | 0.00 | 0.00 | 0.00 | 51 | 1011.2 |
| 20260504002516 | 53 | 289 | 0.0 | 1.7 | 0.00 | 0.00 | 0.00 | 48 | 1011.1 |
| 20260504002011 | 53 | 289 | 0.0 | 2.6 | 0.00 | 0.00 | 0.00 | 46 | 1011.1 |
| 20260504001508 | 53 | 275 | 0.9 | 2.6 | 0.00 | 0.00 | 0.00 | 46 | 1011.0 |
| 20260504001007 | 53 | 294 | 0.0 | 1.7 | 0.00 | 0.00 | 0.00 | 48 | 1011.0 |
| 20260504000507 | 54 | 294 | 0.0 | 2.6 | 0.00 | 0.00 | 0.00 | 47 | 1010.9 |
| 20260504000007 | 55 | 294 | 0.9 | 3.5 | 0.00 | 0.00 | 0.00 | 44 | 1010.8 |
| 20260503235507 | 55 | 312 | 0.0 | 5.2 | 0.00 | 0.00 | 0.00 | 42 | 1010.7 |
| 20260503235008 | 56 | 290 | 1.7 | 5.2 | 0.00 | 0.00 | 0.00 | 42 | 1010.8 |
| 20260503234730 | 56 | 259 | 2.6 | 4.3 | 0.00 | 0.00 | 0.00 | 41 | 1010.7 |
| 20260503234009 | 56 | 327 | 1.7 | 6.1 | 0.00 | 0.00 | 0.00 | 40 | 1010.7 |
| 20260503233730 | 57 | 304 | 2.6 | 6.1 | 0.00 | 0.00 | 0.00 | 40 | 1010.6 |
| 20260503233009 | 57 | 266 | 3.5 | 6.1 | 0.00 | 0.00 | 0.00 | 40 | 1010.5 |
| 20260503232509 | 57 | 259 | 2.6 | 6.1 | 0.00 | 0.00 | 0.00 | 40 | 1010.5 |
| 20260503232008 | 57 | 284 | 2.6 | 9.6 | 0.00 | 0.00 | 0.00 | 39 | 1010.5 |
| 20260503231507 | 58 | 271 | 4.3 | 9.6 | 0.00 | 0.00 | 0.00 | 38 | 1010.6 |
| 20260503231008 | 58 | 261 | 5.2 | 9.6 | 0.00 | 0.00 | 0.00 | 38 | 1010.4 |
| 20260503230506 | 58 | 231 | 4.3 | 11.3 | 0.00 | 0.00 | 0.00 | 37 | 1010.4 |
| 20260503230237 | 58 | 275 | 7.0 | 13.0 | 0.00 | 0.00 | 0.00 | 36 | 1010.4 |
| 20260503225513 | 59 | 259 | 7.0 | 13.0 | 0.00 | 0.00 | 0.00 | 36 | 1010.5 |
| 20260503225454 | 58 | 277 | 3.5 | 10.4 | 0.00 | 0.00 | 0.00 | 37 | 1010.4 |
| 20260503224500 | 58 | 323 | 4.3 | 10.4 | 0.00 | 0.00 | 0.00 | 37 | 1010.4 |
| 20260503223958 | 58 | 257 | 4.3 | 10.4 | 0.00 | 0.00 | 0.00 | 36 | 1010.5 |
| 20260503223458 | 59 | 284 | 3.5 | 10.4 | 0.00 | 0.00 | 0.00 | 36 | 1010.5 |
| 20260503222955 | 59 | 271 | 6.1 | 17.4 | 0.00 | 0.00 | 0.00 | 36 | 1010.6 |
| 20260503222452 | 59 | 252 | 6.1 | 17.4 | 0.00 | 0.00 | 0.00 | 35 | 1010.7 |
| 20260503221952 | 60 | 264 | 5.2 | 11.3 | 0.00 | 0.00 | 0.00 | 36 | 1010.6 |
| 20260503221453 | 60 | 252 | 1.7 | 9.6 | 0.00 | 0.00 | 0.00 | 36 | 1010.4 |
| 20260503220951 | 60 | 263 | 5.2 | 11.3 | 0.00 | 0.00 | 0.00 | 35 | 1010.4 |
| 20260503220716 | 60 | 279 | 5.2 | 13.0 | 0.00 | 0.00 | 0.00 | 35 | 1010.5 |
| 20260503220553 | 60 | 257 | 5.2 | 12.2 | 0.00 | 0.00 | 0.00 | 35 | 1010.4 |
| 20260503215454 | 60 | 254 | 7.0 | 13.0 | 0.00 | 0.00 | 0.00 | 35 | 1010.5 |